TimeAKST,TemperatureF,Dew PointF,Humidity,Sea Level PressureIn,VisibilityMPH,Wind Direction,Wind SpeedMPH,Gust SpeedMPH,PrecipitationIn,Events,Conditions,WindDirDegrees,DateUTC
12:53 AM,3.9,-0.0,84,30.17,9.0,Calm,Calm,-,0.00,Snow,Light Snow,0,2013-01-09 09:53:00
1:53 AM,3.9,1.0,88,30.18,6.0,NW,3.5,-,0.00,Snow,Light Snow,320,2013-01-09 10:53:00
2:53 AM,3.9,-0.0,84,30.18,9.0,Calm,Calm,-,0.00,Snow,Light Snow,0,2013-01-09 11:53:00
3:31 AM,3.2,1.4,92,30.14,2.5,Calm,Calm,-,0.00,Snow,Light Snow,0,2013-01-09 12:31:00
3:40 AM,3.2,1.4,92,30.15,5.0,Calm,Calm,-,0.00,Snow,Light Snow,0,2013-01-09 12:40:00
3:53 AM,3.9,1.0,88,30.18,1.5,Calm,Calm,-,0.00,Snow,Light Snow,0,2013-01-09 12:53:00
4:06 AM,3.2,1.4,92,30.14,1.0,Calm,Calm,-,0.00,Snow,Light Snow,0,2013-01-09 13:06:00
4:22 AM,3.2,1.4,92,30.14,1.0,Calm,Calm,-,0.00,Snow,Light Snow,0,2013-01-09 13:22:00
4:48 AM,3.2,1.4,92,30.14,0.8,Calm,Calm,-,0.00,Snow,Light Snow,0,2013-01-09 13:48:00
4:53 AM,3.9,1.9,91,30.17,0.8,Calm,Calm,-,0.00,,Mist,0,2013-01-09 13:53:00
5:53 AM,3.9,1.9,91,30.16,0.8,Calm,Calm,-,N/A,,Mist,0,2013-01-09 14:53:00
6:53 AM,3.9,1.9,91,30.14,1.2,Calm,Calm,-,0.00,,Overcast,0,2013-01-09 15:53:00
7:16 AM,5.0,1.4,85,30.09,0.8,Calm,Calm,-,N/A,,Mist,0,2013-01-09 16:16:00
7:28 AM,3.2,1.4,92,30.09,1.0,Calm,Calm,-,N/A,,Mist,0,2013-01-09 16:28:00
7:53 AM,3.9,1.9,91,30.13,1.2,Calm,Calm,-,0.00,Snow,Light Snow,0,2013-01-09 16:53:00
8:36 AM,3.2,1.4,92,30.09,2.0,Calm,Calm,-,0.00,Snow,Light Snow,0,2013-01-09 17:36:00
8:53 AM,3.9,1.0,88,30.12,2.0,Calm,Calm,-,0.00,Snow,Light Snow,0,2013-01-09 17:53:00
9:49 AM,5.0,1.4,85,30.07,1.8,Calm,Calm,-,0.00,Snow,Light Snow,0,2013-01-09 18:49:00
9:53 AM,5.0,1.9,87,30.11,2.0,Calm,Calm,-,0.00,Snow,Light Snow,0,2013-01-09 18:53:00
10:00 AM,5.0,1.4,85,30.07,1.8,Calm,Calm,-,0.00,Snow,Light Snow,0,2013-01-09 19:00:00
10:07 AM,5.0,1.4,85,30.07,2.0,Calm,Calm,-,0.00,Snow,Light Snow,0,2013-01-09 19:07:00
10:31 AM,5.0,1.4,85,30.05,4.0,Calm,Calm,-,0.00,Snow,Light Snow,0,2013-01-09 19:31:00
10:53 AM,5.0,1.9,87,30.09,8.0,Calm,Calm,-,0.00,Snow,Light Snow,0,2013-01-09 19:53:00
11:53 AM,3.9,1.0,88,30.08,9.0,Calm,Calm,-,0.00,Snow,Light Snow,0,2013-01-09 20:53:00
12:38 PM,5.0,1.4,85,30.03,10.0,Calm,Calm,-,0.00,,Overcast,0,2013-01-09 21:38:00
12:53 PM,5.0,1.9,87,30.06,10.0,Calm,Calm,-,0.00,,Overcast,0,2013-01-09 21:53:00
1:53 PM,6.1,1.9,83,30.04,10.0,North,3.5,-,N/A,,Mostly Cloudy,350,2013-01-09 22:53:00
2:36 PM,6.8,1.4,79,29.98,10.0,North,3.5,-,N/A,,Overcast,10,2013-01-09 23:36:00
2:53 PM,6.1,1.9,83,30.01,10.0,North,3.5,-,N/A,,Overcast,360,2013-01-09 23:53:00
3:53 PM,6.1,1.9,83,29.98,10.0,Calm,Calm,-,N/A,,Overcast,0,2013-01-10 00:53:00
4:50 PM,6.8,3.2,85,29.92,8.0,Calm,Calm,-,0.00,Snow,Light Snow,0,2013-01-10 01:50:00
4:53 PM,7.0,3.0,84,29.95,9.0,Calm,Calm,-,0.00,,Overcast,0,2013-01-10 01:53:00
5:05 PM,6.8,3.2,85,29.90,10.0,Calm,Calm,-,N/A,,Overcast,0,2013-01-10 02:05:00
5:53 PM,7.0,3.0,84,29.92,9.0,Calm,Calm,-,0.00,,Overcast,0,2013-01-10 02:53:00
6:10 PM,6.8,3.2,85,29.88,8.0,Calm,Calm,-,0.00,Snow,Light Snow,0,2013-01-10 03:10:00
6:53 PM,8.1,3.9,83,29.89,10.0,Calm,Calm,-,0.00,,Overcast,0,2013-01-10 03:53:00
7:53 PM,8.1,3.9,83,29.85,10.0,NNE,4.6,-,0.00,,Overcast,30,2013-01-10 04:53:00
8:53 PM,9.0,5.0,84,29.84,10.0,Calm,Calm,-,N/A,,Overcast,0,2013-01-10 05:53:00
10:53 PM,9.0,5.0,84,29.83,10.0,Calm,Calm,-,N/A,,Overcast,0,2013-01-10 07:53:00
11:53 PM,10.0,6.1,84,29.83,2.5,Calm,Calm,-,0.00,Snow,Light Snow,0,2013-01-10 08:53:00